Torna al catalogo

STARLINK-36444

AttivoComunicazioniVLEO
NORAD 67521·PAYLOAD·🇺🇸 United States

Lanciato Jan 18, 2026 da Cape Canaveral Space Force Station

Loading…

Prossimi Passaggi (prossime 24 ore)

TLE

AggiornatoSource: CelesTrak SupGP

Epoca: Sep 15, 2026, 04:13 UTC

1 67521C 26012AE  26258.17618056  .00040038  00000+0  14498-2 0  2589
2 67521  43.0034 324.0896 0001565 264.5558  91.2443 15.27566317    18

Traccia STARLINK-36444 in tempo reale con AllMySat

Download on the App Store